Great Bend, NY

7:20 AM EST on February 09, 2016 (GMT -0500)
Wheeler-Sack Army Air Field

Weather History for KGTB - January, 2013

Change the Weather History Date:

Saturday, January 19, 2013

  Actual Average Record
Temperature  
Mean Temperature 35 °F -  
Max Temperature 47 °F 20 °F 47 °F (2013)
Min Temperature 23 °F 4 °F -23 °F (1997)
Degree Days  
Heating Degree Days 30    
Moisture  
Dew Point 22 °F    
Average Humidity 54    
Maximum Humidity 68    
Minimum Humidity 40    
Precipitation  
Precipitation 0.00 in - - ()
Sea Level Pressure  
Sea Level Pressure 29.89 in    
Wind  
Wind Speed 14 mph (SSW)    
Max Wind Speed 21 mph    
Max Gust Speed 34 mph    
Visibility 10 miles    
Events Rain    
Averages and records for this station are not official NWS values.
T = Trace of Precipitation, MM = Missing Value Source: NWS Daily Summary

Daily Weather History Graph

Daily Weather History Graph

Search for Another Location

Airport or City:

Trip Planner

Search our weather history database for the weather conditions in past years. The results will help you decide how hot, cold, wet, or windy it might be!

Date:

Astronomy

Jan. 19, 2013 Rise Set
Actual Time 7:31 AM EST 4:55 PM EST
Civil Twilight 7:00 AM EST 5:27 PM EST
Nautical Twilight 6:24 AM EST 6:03 PM EST
Astronomical Twilight 5:50 AM EST 6:37 PM EST
Moon 11:23 AM EST (1/19) 1:00 AM EST (1/19)
Length of Visible Light 10h 27m
Length of Day
9h 23m
First Quarter, 57% of the Moon is Illuminated
Jan 19
First Quarter
Jan 26
Full
Feb 3
Last Quarter
Feb 10
New
Feb 17
First Quarter

Hourly Weather History & Observations

Time (EST) Temp. Windchill Dew Point Humidity Pressure Visibility Wind Dir Wind Speed Gust Speed Precip Events Conditions
12:55 AM 23.7 °F 12.6 °F 12.9 °F 63% 30.06 in 10.0 mi SSE 11.5 mph - N/A   Scattered Clouds
1:55 AM 24.4 °F 13.0 °F 14.5 °F 66% 30.04 in 10.0 mi SSE 12.7 mph - N/A   Partly Cloudy
2:55 AM 25.7 °F 14.6 °F 15.4 °F 65% 30.02 in 10.0 mi SSE 12.7 mph - N/A   Clear
3:55 AM 27.1 °F 17.5 °F 15.4 °F 61% 29.99 in 10.0 mi SE 10.4 mph - N/A   Clear
4:48 AM 33.8 °F 23.5 °F 15.8 °F 48% 29.97 in 10.0 mi SSW 16.1 mph 25.3 mph N/A   Mostly Cloudy
4:55 AM 33.6 °F 25.0 °F 17.4 °F 52% 29.96 in 10.0 mi SW 11.5 mph 32.2 mph 0.00 in Rain Light Rain
5:05 AM 33.8 °F 22.2 °F 17.6 °F 52% 29.96 in 10.0 mi SSW 20.7 mph 29.9 mph N/A   Overcast
5:07 AM 33.8 °F 23.9 °F 17.6 °F 52% 29.96 in 10.0 mi SSW 15.0 mph 29.9 mph N/A Rain Light Rain
5:32 AM 33.8 °F 23.2 °F 17.6 °F 52% 29.95 in 10.0 mi SSW 17.3 mph 26.5 mph N/A   Overcast
5:55 AM 34.9 °F 24.6 °F 17.4 °F 49% 29.94 in 10.0 mi SSW 17.3 mph 24.2 mph 0.00 in   Overcast
6:55 AM 36.1 °F 28.2 °F 17.6 °F 47% 29.93 in 10.0 mi SW 11.5 mph - N/A   Overcast
7:55 AM 37.2 °F 27.9 °F 18.5 °F 47% 29.92 in 10.0 mi SSW 16.1 mph 27.6 mph N/A   Overcast
8:55 AM 37.9 °F 28.9 °F 20.1 °F 49% 29.92 in 10.0 mi SSW 16.1 mph 23.0 mph N/A   Overcast
9:55 AM 38.8 °F 30.0 °F 21.0 °F 49% 29.92 in 10.0 mi SSW 16.1 mph 29.9 mph N/A   Overcast
10:55 AM 39.4 °F 31.4 °F 22.3 °F 50% 29.92 in 10.0 mi SW 13.8 mph 24.2 mph N/A   Overcast
11:55 AM 39.6 °F 30.3 °F 23.0 °F 52% 29.90 in 10.0 mi SW 18.4 mph 29.9 mph N/A   Overcast
12:55 PM 39.6 °F 32.1 °F 23.5 °F 53% 29.89 in 10.0 mi WSW 12.7 mph 25.3 mph N/A   Overcast
1:55 PM 40.1 °F 31.6 °F 24.4 °F 54% 29.89 in 10.0 mi SW 16.1 mph 24.2 mph N/A   Overcast
2:55 PM 40.5 °F 32.8 °F 26.1 °F 57% 29.88 in 10.0 mi SW 13.8 mph - N/A   Overcast
3:55 PM 40.8 °F 33.7 °F 26.4 °F 57% 29.88 in 10.0 mi SW 12.7 mph - N/A   Overcast
4:55 PM 40.6 °F 34.8 °F 27.5 °F 59% 29.86 in 10.0 mi SSW 9.2 mph - N/A   Partly Cloudy
5:55 PM 38.8 °F 33.8 °F 28.9 °F 68% 29.84 in 10.0 mi SSW 6.9 mph - N/A   Clear
6:55 PM 39.4 °F 31.8 °F 28.8 °F 66% 29.81 in 10.0 mi SSW 12.7 mph - N/A   Clear
7:55 PM 40.5 °F 34.6 °F 29.8 °F 66% 29.77 in 10.0 mi SSE 9.2 mph - N/A   Clear
8:55 PM 38.8 °F 31.6 °F 27.9 °F 65% 29.73 in 10.0 mi SSE 11.5 mph - N/A   Clear
9:55 PM 45.9 °F 39.4 °F 25.7 °F 45% 29.67 in 10.0 mi SSW 15.0 mph - N/A   Clear
10:55 PM 47.8 °F - 24.6 °F 40% 29.63 in 10.0 mi SW 16.1 mph 34.5 mph N/A   Clear
11:55 PM 47.5 °F - 24.6 °F 41% 29.60 in 10.0 mi SW 19.6 mph 31.1 mph N/A   Partly Cloudy